San Angelo, TX

6:38 PM CDT on August 19, 2017 (GMT -0500)
San Angelo Regional-Mathis

Weather History for KSJT - December, 2011

Change the Weather History Date:

Saturday, December 24, 2011

  Actual Average Record
Temperature  
Mean Temperature 37 °F 46 °F  
Max Temperature 38 °F 59 °F 87 °F (1955)
Min Temperature 35 °F 33 °F 6 °F (1983)
Degree Days  
Heating Degree Days 28 19  
Month to date heating degree days 454 430  
Since 1 July heating degree days 765 830  
Cooling Degree Days 0 0  
Month to date cooling degree days 0 0  
Year to date cooling degree days 3753 2502  
Moisture  
Dew Point 32 °F    
Average Humidity 81    
Maximum Humidity 92    
Minimum Humidity 70    
Precipitation  
Precipitation 0.10 in 0.02 in 0.99 in (2010)
Month to date precipitation 0.99 0.63  
Year to date precipitation 9.23 21.03  
Snow  
Snow T in 0.00 in 0.00 in (2001)
Month to date snowfall T 0.2  
Since 1 July snowfall T 0.5  
Snow Depth 0.00 in    
Sea Level Pressure  
Sea Level Pressure 30.40 in    
Wind  
Wind Speed 8 mph (North)    
Max Wind Speed 17 mph    
Max Gust Speed 21 mph    
Visibility 6 miles    
Events Rain    
T = Trace of Precipitation, MM = Missing Value Source: NWS Daily Summary

Daily Weather History Graph

Daily Weather History Graph

Search for Another Location

Airport or City:

Trip Planner

Search our weather history database for the weather conditions in past years. The results will help you decide how hot, cold, wet, or windy it might be!

Date:

Astronomy

Dec. 24, 2011 Rise Set
Actual Time 7:38 AM CST 5:44 PM CST
Civil Twilight 7:11 AM CST 6:11 PM CST
Nautical Twilight 6:41 AM CST 6:42 PM CST
Astronomical Twilight 6:11 AM CST 7:11 PM CST
Moon 7:28 AM CST (12/24) 5:59 PM CST (12/24)
Length of Visible Light 11h 00m
Length of Day
10h 06m
New Moon, 0% of the Moon is Illuminated
Dec 24
New Moon
Dec 24
New
Jan 1
First Quarter
Jan 9
Full
Jan 16
Last Quarter

Hourly Weather History & Observations

Time (CST) Temp. Windchill Dew Point Humidity Pressure Visibility Wind Dir Wind Speed Gust Speed Precip Events Conditions
12:51 AM 37.9 °F 29.6 °F 28.9 °F 70% 30.40 in 10.0 mi NNE 13.8 mph - N/A   Overcast
1:51 AM 37.0 °F 28.9 °F 28.9 °F 73% 30.38 in 10.0 mi NE 12.7 mph - N/A   Overcast
2:51 AM 36.0 °F 29.0 °F 30.0 °F 79% 30.39 in 8.0 mi NE 9.2 mph - N/A   Overcast
3:07 AM 35.6 °F 29.2 °F 30.2 °F 81% 30.36 in 6.0 mi NE 8.1 mph - N/A   Haze
3:51 AM 35.1 °F 30.1 °F 30.9 °F 85% 30.39 in 5.0 mi ENE 5.8 mph - 0.00 in Rain Light Rain
4:36 AM 35.6 °F 29.2 °F 30.2 °F 81% 30.33 in 6.0 mi NE 8.1 mph - 0.01 in   Overcast
4:51 AM 35.6 °F 29.9 °F 30.2 °F 81% 30.33 in 6.0 mi NNE 6.9 mph - N/A   Overcast
5:51 AM 35.1 °F 30.1 °F 30.9 °F 85% 30.38 in 5.0 mi NE 5.8 mph - 0.00 in Rain Light Rain
6:51 AM 35.1 °F 27.9 °F 32.0 °F 89% 30.40 in 4.0 mi NE 9.2 mph - 0.00 in   Overcast
7:51 AM 35.1 °F 28.6 °F 32.0 °F 89% 30.41 in 4.0 mi NE 8.1 mph - 0.00 in   Overcast
8:51 AM 36.0 °F 29.0 °F 32.0 °F 86% 30.43 in 4.0 mi NNE 9.2 mph - 0.00 in   Overcast
9:51 AM 36.0 °F 28.5 °F 32.0 °F 86% 30.43 in 5.0 mi NE 10.4 mph - 0.00 in   Overcast
10:51 AM 36.0 °F 28.5 °F 33.1 °F 89% 30.45 in 5.0 mi NNE 10.4 mph - 0.01 in Rain Light Rain
11:51 AM 37.0 °F 29.8 °F 33.1 °F 86% 30.43 in 5.0 mi NNE 10.4 mph - 0.01 in Rain Light Rain
12:51 PM 37.0 °F 29.8 °F 33.1 °F 86% 30.40 in 3.0 mi NNE 10.4 mph - 0.03 in   Overcast
1:51 PM 37.0 °F 30.4 °F 33.1 °F 86% 30.40 in 3.0 mi North 9.2 mph - 0.02 in Rain Light Rain
2:04 PM 37.4 °F 31.4 °F 33.8 °F 87% 30.36 in 5.0 mi North 8.1 mph - 0.01 in Rain Light Rain
2:51 PM 37.0 °F 31.0 °F 34.0 °F 89% 30.38 in 5.0 mi North 8.1 mph - 0.01 in Rain Light Rain
3:51 PM 37.0 °F 32.4 °F 34.0 °F 89% 30.39 in 3.0 mi North 5.8 mph - 0.00 in   Overcast
3:59 PM 37.4 °F 31.4 °F 33.8 °F 87% 30.35 in 2.5 mi NNE 8.1 mph - N/A   Overcast
4:38 PM 37.4 °F 32.8 °F 33.8 °F 87% 30.36 in 3.0 mi North 5.8 mph - N/A   Overcast
4:51 PM 37.0 °F 32.4 °F 33.1 °F 86% 30.40 in 4.0 mi North 5.8 mph - N/A   Overcast
5:51 PM 37.0 °F 31.6 °F 33.1 °F 86% 30.42 in 9.0 mi NW 6.9 mph - N/A   Overcast
6:07 PM 37.4 °F 32.8 °F 33.8 °F 87% 30.38 in 9.0 mi NNW 5.8 mph - N/A   Overcast
6:51 PM 37.0 °F 34.5 °F 33.1 °F 86% 30.42 in 5.0 mi North 3.5 mph - N/A   Overcast
7:08 PM 37.4 °F 34.9 °F 33.8 °F 87% 30.39 in 7.0 mi NNW 3.5 mph - N/A   Overcast
7:51 PM 37.0 °F 31.6 °F 33.1 °F 86% 30.44 in 7.0 mi WNW 6.9 mph - N/A   Overcast
8:51 PM 35.6 °F 28.6 °F 32.0 °F 87% 30.41 in 10.0 mi WNW 9.2 mph - N/A   Overcast
9:18 PM 35.6 °F 29.9 °F 32.0 °F 87% 30.42 in 10.0 mi WNW 6.9 mph - N/A   Overcast
9:51 PM 36.0 °F 32.1 °F 32.0 °F 86% 30.46 in 10.0 mi WNW 4.6 mph - N/A   Overcast
10:25 PM 35.6 °F 32.8 °F 32.0 °F 87% 30.42 in 8.0 mi West 3.5 mph - 0.00 in Rain Light Rain
10:41 PM 35.6 °F - 32.0 °F 87% 30.41 in 3.0 mi Calm Calm - 0.01 in Rain Light Rain
10:51 PM 35.1 °F - 32.0 °F 89% 30.45 in 5.0 mi Calm Calm - 0.01 in Rain Light Rain
11:18 PM 35.6 °F 30.7 °F 32.0 °F 87% 30.42 in 7.0 mi West 5.8 mph - N/A   Overcast
11:27 PM 35.6 °F 29.2 °F 32.0 °F 87% 30.42 in 7.0 mi West 8.1 mph - 0.00 in   Overcast
11:51 PM 35.1 °F 28.6 °F 32.0 °F 89% 30.46 in 8.0 mi West 8.1 mph - 0.00 in   Overcast